Temp
62 62 62 62 61 61 61 62 61 61 61 62 61 62 63 64 64 64 64 64 64 63 63 63 63 63 64 63 63 63 63 62 62 61 61 61 60 60 60 59 58 60
62 62 61 61 60 60 61 62 62 62 62 62 62 61 62 63 63 64 63 63 64 63 63 63 63 63 63 63 63 62 61 62 61 62 61 60 59 60 60 60 60 58
61 61 61 61 61 61 61 61 61 61 61 62 62 62 63 63 62 63 64 63 63 62 62 62 62 63 63 63 62 62 62 60 61 60 61 60 59 60 59 59 58 59
61 61 62 62 62 61 61 60 60 61 61 61 61 62 63 63 62 62 62 65 62 62 62 62 62 62 62 62 62 62 62 61 61 61 60 59 59 60 59 59 58 58
61 61 62 62 61 61 60 61 61 61 61 61 61 61 61 61 61 61 61 62 62 61 61 62 62 62 61 61 62 61 61 60 60 61 60 59 59 60 59 60 59 58
62 62 62 62 62 61 60 61 61 61 61 61 61 61 60 61 61 61 61 61 61 61 61 61 61 61 61 61 61 61 60 60 60 61 61 60 59 58 61 59 59 58
62 62 62 63 62 62 61 61 61 61 61 61 61 60 60 60 60 61 61 62 61 61 61 61 61 60 60 60 60 59 60 60 60 61 61 58 59 58 59 59 59 59
62 62 62 62 61 61 60 60 61 61 61 61 61 60 60 61 62 62 62 61 61 60 60 60 60 60 58 60 60 59 58 60 60 60 60 59 58 59 58 59 58 58
63 62 62 61 60 61 60 60 60 60 61 61 61 60 60 61 62 62 62 62 61 60 59 59 60 59 59 60 59 59 59 58 60 60 60 59 59 59 59 58 57 57
61 60 60 60 60 60 59 60 60 60 61 61 61 60 60 61 62 63 62 62 61 60 59 60 59 59 59 60 60 59 59 59 58 59 59 59 60 59 59 58 58 57
60 59 59 60 60 60 60 60 60 60 61 61 60 60 61 61 62 62 62 61 61 60 59 59 59 59 59 57 58 58 59 59 59 58 58 59 59 60 61 58 58 57
59 59 59 60 60 60 60 60 60 61 60 60 61 61 61 63 63 63 63 61 61 60 61 59 58 58 59 58 57 57 57 58 58 58 58 59 58 59 59 57 57 55
59 60 60 60 60 60 59 60 60 60 61 60 61 61 63 62 63 63 60 61 59 59 58 57 56 56 57 56 57 56 57 57 57 57 57 58 58 59 58 57 57 57
59 60 60 59 60 60 60 60 60 60 60 60 61 61 62 63 61 59 58 58 57 56 54 54 54 53 53 55 55 57 57 57 57 58 58 58 58 57 57 57 57 57
59 59 59 59 60 60 60 60 60 60 60 60 60 61 60 59 58 58 56 55 54 54 53 52 51 49 48 50 55 55 56 57 57 58 58 57 57 56 56 55 54 54
59 59 59 59 59 59 60 60 59 59 59 58 59 59 58 58 58 57 56 55 53 51 51 50 49 48 47 45 51 56 56 58 57 57 58 57 56 55 54 54 54 55
58 59 59 59 59 59 58 59 59 58 58 57 57 57 58 57 56 55 53 52 52 51 49 49 47 46 43 42 47 52 57 57 57 56 57 57 56 55 54 54 54 54
58 59 58 58 58 58 58 58 58 57 56 56 56 55 56 56 55 53 51 51 50 50 48 48 46 43 41 44 46 49 53 57 57 57 56 56 56 56 55 55 54 55
58 58 58 57 57 57 57 57 57 56 56 55 55 55 55 54 53 52 51 51 51 50 48 48 47 42 42 45 45 46 49 55 57 57 56 56 56 56 55 55 54 54
57 58 57 57 57 57 57 57 56 55 54 55 54 54 54 52 51 51 51 50 50 50 48 47 47 43 43 45 45 46 48 52 58 57 56 56 56 55 55 54 54 53
56 56 56 56 57 56 55 54 54 53 53 53 53 53 53 52 51 50 50 49 49 49 49 47 46 41 43 44 45 46 48 51 57 57 56 56 56 55 55 54 53 52
55 55 55 56 56 55 54 53 52 52 51 50 50 50 50 50 49 50 50 49 49 49 49 47 46 41 43 44 45 47 49 55 55 55 54 53 53 53 53 53 53 52
53 54 54 55 54 54 53 52 51 50 49 49 48 48 47 47 47 47 49 50 50 49 48 45 45 42 43 44 45 47 50 54 53 51 50 50 49 50 51 52 52 52
52 52 52 53 53 52 51 50 50 49 48 48 47 47 46 47 47 47 47 47 48 48 48 47 46 43 42 44 45 47 51 54 53 51 49 48 47 48 49 48 49 51
51 51 51 51 51 50 50 49 49 48 48 48 47 47 46 46 47 47 47 47 47 47 49 47 46 45 42 43 45 47 51 53 53 51 49 48 48 47 48 47 46 46
48 50 50 51 50 50 50 49 48 47 47 46 46 46 45 45 46 46 45 45 46 46 46 46 45 44 43 42 43 45 48 54 53 51 48 48 49 49 48 47 46 46
MSLP
1015.11 1014.75 1014.31 1014.63 1015.19 1015.23 1015.03 1014.75 1014.63 1015.07 1015.99 1016.35 1016.51 1016.27 1016.11 1016.03 1016.11 1016.31 1016.47 1016.63 1016.71 1016.83 1016.95 1017.07 1017.27 1017.39 1017.51 1017.67 1017.79 1017.95 1018.19 1018.35 1018.55 1018.71 1018.87 1018.99 1019.19 1019.27 1019.47 1019.63 1019.79 1019.95
1014.15 1014.39 1014.67 1015.11 1015.31 1014.99 1014.67 1014.55 1014.67 1014.67 1014.75 1015.15 1015.59 1015.83 1016.03 1016.35 1016.39 1016.15 1016.31 1016.43 1016.51 1016.59 1016.75 1016.95 1017.15 1017.27 1017.47 1017.63 1017.75 1017.91 1018.11 1018.31 1018.43 1018.63 1018.83 1018.99 1019.11 1019.23 1019.35 1019.51 1019.71 1020.03
1014.39 1014.59 1014.75 1014.87 1014.91 1014.83 1014.67 1014.63 1014.71 1014.83 1014.91 1014.87 1015.23 1015.43 1015.39 1015.75 1016.59 1016.71 1016.23 1016.19 1016.31 1016.51 1016.71 1016.91 1017.11 1017.27 1017.39 1017.55 1017.67 1017.83 1018.03 1018.19 1018.39 1018.55 1018.71 1018.91 1019.11 1019.23 1019.39 1019.59 1019.79 1019.95
1014.11 1014.51 1014.59 1014.51 1014.51 1014.59 1014.75 1014.71 1014.47 1014.35 1014.59 1014.79 1015.07 1015.19 1015.27 1015.47 1016.03 1016.87 1016.71 1016.19 1016.31 1016.47 1016.71 1016.95 1017.07 1017.27 1017.35 1017.47 1017.59 1017.79 1017.91 1018.03 1018.19 1018.43 1018.67 1018.91 1019.03 1019.19 1019.43 1019.59 1019.79 1019.99
1013.75 1014.47 1014.67 1014.43 1014.43 1014.51 1014.67 1014.55 1014.43 1014.43 1014.39 1014.47 1014.83 1015.03 1015.27 1015.43 1015.71 1016.59 1017.19 1016.47 1016.27 1016.47 1016.71 1016.83 1016.99 1017.11 1017.27 1017.43 1017.55 1017.83 1017.99 1018.11 1018.27 1018.39 1018.59 1018.83 1019.03 1019.15 1019.39 1019.55 1019.75 1019.91
1013.43 1013.91 1014.15 1014.23 1014.27 1014.43 1014.55 1014.47 1014.47 1014.47 1014.47 1014.55 1014.71 1014.91 1015.23 1015.39 1015.47 1016.23 1017.35 1016.87 1016.39 1016.47 1016.63 1016.75 1016.87 1017.03 1017.15 1017.35 1017.59 1017.75 1017.95 1018.11 1018.27 1018.39 1018.59 1018.79 1019.07 1019.19 1019.31 1019.47 1019.67 1019.87
1013.19 1013.51 1013.79 1013.99 1014.15 1014.27 1014.43 1014.51 1014.55 1014.47 1014.35 1014.51 1014.75 1014.99 1015.27 1015.43 1015.23 1015.63 1016.95 1016.51 1016.43 1016.47 1016.59 1016.75 1016.87 1017.07 1017.15 1017.35 1017.51 1017.79 1017.95 1018.03 1018.27 1018.43 1018.63 1018.87 1019.03 1019.23 1019.27 1019.39 1019.55 1019.75
1012.99 1013.27 1013.59 1013.95 1014.43 1014.63 1014.47 1014.39 1014.35 1014.35 1014.39 1014.59 1014.79 1015.15 1015.31 1015.35 1015.31 1015.59 1016.39 1016.23 1016.35 1016.47 1016.59 1016.71 1016.87 1016.99 1017.23 1017.31 1017.55 1017.79 1017.99 1018.11 1018.31 1018.51 1018.71 1018.91 1019.03 1019.15 1019.31 1019.35 1019.47 1019.67
1013.03 1013.27 1013.59 1013.95 1014.19 1014.11 1014.27 1014.31 1014.31 1014.27 1014.35 1014.47 1014.75 1014.99 1015.39 1015.35 1015.15 1015.47 1015.91 1015.99 1016.19 1016.39 1016.55 1016.71 1016.83 1017.07 1017.27 1017.39 1017.55 1017.71 1017.91 1018.15 1018.27 1018.47 1018.63 1018.87 1019.03 1019.15 1019.27 1019.39 1019.51 1019.67
1013.11 1013.27 1013.59 1013.75 1013.67 1013.91 1014.11 1014.07 1014.19 1014.27 1014.31 1014.39 1014.79 1015.03 1015.23 1015.27 1015.07 1015.47 1015.59 1015.91 1016.15 1016.35 1016.55 1016.71 1016.95 1017.15 1017.31 1017.43 1017.51 1017.67 1017.87 1018.03 1018.27 1018.39 1018.51 1018.67 1018.87 1019.11 1019.27 1019.39 1019.51 1019.71
1012.99 1013.03 1013.27 1013.39 1013.27 1013.43 1013.71 1013.87 1013.99 1014.15 1014.23 1014.31 1014.59 1014.99 1015.11 1014.95 1015.07 1015.51 1015.55 1015.91 1016.15 1016.39 1016.59 1016.75 1016.95 1017.15 1017.31 1017.47 1017.55 1017.55 1017.67 1017.87 1018.07 1018.27 1018.43 1018.63 1018.79 1018.95 1019.15 1019.31 1019.47 1019.59
1013.07 1013.07 1013.31 1013.39 1013.31 1013.35 1013.47 1013.67 1013.91 1014.11 1014.23 1014.31 1014.35 1014.91 1014.87 1014.87 1015.19 1015.47 1015.63 1015.91 1016.07 1016.27 1016.43 1016.67 1016.87 1017.07 1017.23 1017.35 1017.47 1017.55 1017.67 1017.79 1017.95 1018.11 1018.31 1018.55 1018.79 1018.99 1019.15 1019.31 1019.51 1019.75
1013.07 1012.95 1013.07 1013.23 1013.23 1013.43 1013.79 1013.95 1014.15 1014.27 1014.15 1014.43 1014.63 1014.67 1014.67 1015.07 1015.19 1015.47 1015.79 1015.91 1016.19 1016.35 1016.55 1016.71 1016.95 1017.11 1017.19 1017.31 1017.47 1017.55 1017.59 1017.75 1017.95 1018.11 1018.31 1018.63 1018.79 1018.95 1019.11 1019.27 1019.43 1019.63
1013.03 1012.91 1012.95 1013.27 1013.51 1013.83 1014.11 1014.27 1014.43 1014.59 1014.31 1014.27 1014.55 1014.75 1014.91 1014.87 1015.31 1015.75 1016.03 1016.15 1016.35 1016.55 1016.79 1016.91 1017.03 1017.19 1017.31 1017.39 1017.47 1017.47 1017.59 1017.75 1017.87 1018.11 1018.39 1018.63 1018.91 1019.15 1019.23 1019.31 1019.39 1019.51
1012.79 1012.87 1012.95 1013.07 1013.03 1013.47 1013.79 1013.95 1014.27 1014.51 1014.67 1014.51 1014.71 1014.59 1015.23 1015.31 1015.55 1015.83 1016.19 1016.47 1016.71 1016.83 1016.99 1017.15 1017.15 1017.31 1017.43 1017.43 1017.43 1017.59 1017.63 1017.75 1017.95 1018.15 1018.39 1018.79 1019.07 1019.27 1019.43 1019.51 1019.63 1019.75
1012.55 1012.59 1012.71 1012.79 1013.03 1013.27 1013.47 1013.75 1014.07 1014.39 1014.51 1014.79 1014.87 1015.07 1015.47 1015.55 1015.71 1015.99 1016.23 1016.55 1016.79 1017.15 1017.27 1017.39 1017.47 1017.67 1017.67 1017.51 1017.43 1017.47 1017.75 1017.91 1018.19 1018.39 1018.55 1018.83 1019.15 1019.43 1019.63 1019.79 1019.99 1019.99
1012.39 1012.39 1012.63 1012.95 1013.03 1013.15 1013.35 1013.71 1013.87 1014.19 1014.55 1014.91 1015.03 1015.31 1015.43 1015.63 1015.87 1016.19 1016.67 1016.95 1017.03 1017.15 1017.27 1017.55 1017.67 1017.71 1017.59 1017.39 1017.31 1017.51 1017.75 1018.03 1018.31 1018.63 1018.79 1018.99 1019.19 1019.43 1019.79 1020.07 1020.19 1020.39
1012.35 1012.47 1012.83 1013.03 1013.11 1013.19 1013.35 1013.55 1013.63 1014.07 1014.75 1014.87 1014.95 1015.27 1015.55 1015.79 1016.07 1016.47 1016.91 1017.23 1017.43 1017.55 1017.67 1017.83 1017.91 1017.95 1017.59 1017.39 1017.35 1017.51 1017.75 1018.11 1018.47 1018.71 1018.95 1019.15 1019.39 1019.67 1019.95 1020.15 1020.43 1020.59
1012.43 1012.55 1012.79 1012.95 1013.11 1013.27 1013.31 1013.63 1013.83 1014.23 1014.83 1015.03 1015.11 1015.51 1015.79 1016.15 1016.47 1016.71 1017.07 1017.35 1017.35 1017.47 1017.79 1017.99 1017.99 1018.03 1017.59 1017.43 1017.47 1017.63 1017.87 1018.11 1018.59 1018.79 1019.03 1019.31 1019.55 1019.79 1020.03 1020.27 1020.47 1020.51
1012.87 1012.67 1012.75 1012.99 1013.15 1013.27 1013.39 1013.63 1014.19 1014.59 1015.15 1015.19 1015.31 1015.67 1015.99 1016.47 1016.67 1016.91 1017.15 1017.31 1017.51 1017.59 1017.91 1018.15 1018.15 1018.23 1017.87 1017.67 1017.67 1017.79 1018.03 1018.27 1018.67 1018.95 1019.27 1019.55 1019.79 1020.07 1020.31 1020.55 1020.63 1020.59
1013.31 1013.23 1013.07 1013.15 1013.19 1013.43 1013.79 1014.31 1014.71 1015.15 1015.55 1015.87 1015.79 1015.79 1016.03 1016.35 1016.63 1017.03 1017.35 1017.51 1017.75 1017.87 1017.91 1018.19 1018.51 1018.43 1018.11 1017.99 1018.03 1018.07 1018.23 1018.47 1018.95 1019.31 1019.71 1020.03 1020.31 1020.51 1020.71 1020.91 1021.07 1021.11
1013.91 1013.67 1013.79 1013.39 1013.51 1013.79 1014.31 1014.75 1015.31 1015.75 1016.03 1016.71 1016.39 1016.47 1016.63 1016.63 1017.15 1017.27 1017.55 1017.79 1017.99 1018.07 1017.87 1018.19 1018.67 1018.55 1018.23 1018.23 1018.23 1018.31 1018.47 1018.95 1019.35 1019.83 1020.31 1020.71 1020.99 1021.15 1021.27 1021.31 1021.31 1021.35
1014.79 1014.43 1014.43 1014.39 1014.07 1014.27 1014.91 1015.51 1015.99 1016.43 1016.79 1016.95 1016.95 1017.07 1017.07 1017.23 1017.71 1018.11 1018.19 1018.03 1017.99 1018.31 1018.23 1018.59 1018.83 1018.87 1018.55 1018.51 1018.55 1018.47 1018.79 1019.43 1019.87 1020.39 1020.91 1021.27 1021.67 1021.79 1021.67 1021.55 1021.51 1021.55
1015.59 1015.15 1015.23 1015.15 1015.07 1015.35 1015.67 1016.23 1016.63 1016.75 1017.03 1017.35 1017.47 1017.39 1017.79 1017.95 1018.15 1018.51 1018.87 1018.91 1018.71 1018.79 1018.75 1018.71 1019.15 1019.27 1018.99 1018.87 1018.95 1018.95 1018.87 1019.47 1020.03 1020.47 1021.03 1021.43 1021.79 1022.07 1022.11 1022.19 1022.31 1022.11
1016.51 1015.91 1015.91 1016.11 1016.27 1016.47 1016.63 1016.79 1017.11 1017.39 1017.87 1017.91 1018.43 1018.27 1018.23 1018.39 1018.55 1018.83 1019.27 1019.47 1019.63 1019.59 1019.23 1019.03 1019.47 1019.63 1019.51 1019.39 1019.43 1019.51 1019.51 1019.79 1020.07 1020.51 1021.07 1021.67 1021.83 1022.27 1022.59 1022.63 1022.79 1022.91
1017.63 1017.03 1016.79 1016.83 1017.11 1017.15 1017.27 1017.39 1017.63 1017.95 1018.39 1018.59 1019.27 1019.07 1018.91 1018.95 1018.99 1019.39 1019.79 1020.15 1020.19 1020.07 1019.91 1019.91 1019.99 1020.23 1020.19 1019.91 1019.91 1019.95 1019.91 1019.99 1020.31 1020.71 1021.63 1022.03 1022.15 1022.19 1022.35 1022.75 1022.99 1023.11
Wind_Speed
7 10 10 7 5 5 6 8 8 8 4 1 4 5 6 6 6 7 8 7 7 7 6 6 6 5 6 6 6 6 6 6 5 5 5 6 5 6 6 4 4 5
10 4 2 2 1 4 6 6 5 6 8 9 8 3 2 4 2 6 7 7 6 6 5 5 5 6 6 6 6 6 5 4 5 3 5 4 4 5 5 5 5 3
3 4 4 8 9 8 7 4 4 4 6 8 7 6 7 5 2 4 5 6 6 5 5 5 5 5 6 6 6 6 6 5 5 3 4 4 4 5 3 4 4 5
5 5 5 6 7 7 5 5 6 6 5 6 7 6 7 6 4 3 4 5 5 5 5 5 6 5 5 6 6 5 5 5 5 5 4 3 3 4 5 4 4 3
7 8 8 8 6 5 4 7 7 5 6 6 6 6 5 6 7 2 6 3 5 6 6 6 5 6 5 6 5 5 5 5 4 5 5 4 4 4 4 5 4 4
5 8 10 8 6 5 6 8 6 6 5 5 7 6 5 5 7 5 5 5 4 6 6 5 6 5 5 6 5 5 5 5 4 4 4 5 4 3 4 4 5 4
8 8 8 7 7 5 5 4 5 5 6 6 6 5 6 6 8 9 7 5 5 5 6 5 5 5 4 5 5 5 5 5 4 4 5 3 4 4 3 4 5 4
8 6 6 6 6 6 5 6 6 6 6 6 7 4 5 6 6 7 7 5 5 5 4 5 4 5 4 4 5 5 4 4 5 5 4 4 4 4 3 4 4 4
6 7 6 7 9 10 7 6 5 5 6 8 8 7 4 5 6 6 6 5 5 4 5 4 4 4 4 4 5 6 6 4 5 5 6 5 5 4 4 3 3 4
5 4 6 8 10 6 6 6 6 6 6 7 6 5 7 5 4 5 6 6 5 5 4 4 4 4 4 4 6 6 6 6 5 5 5 5 5 5 4 4 4 4
5 7 8 8 8 7 8 8 8 7 7 8 8 7 7 6 5 4 6 6 6 5 4 5 5 5 5 4 4 5 6 6 6 5 5 5 5 5 5 4 4 4
5 5 6 7 8 8 9 8 8 8 7 7 10 9 7 6 7 5 6 6 5 5 6 5 4 5 5 5 4 4 4 5 5 5 5 5 4 4 4 4 4 3
7 7 7 9 8 5 3 4 5 7 8 8 5 7 9 7 6 6 3 5 4 5 4 4 4 3 4 4 4 4 4 4 4 4 4 4 4 5 5 5 5 5
5 5 5 6 7 5 6 4 4 3 6 6 7 5 5 8 6 5 4 5 5 5 4 3 4 3 2 3 4 4 4 4 5 5 5 5 5 4 4 4 3 4
4 3 5 8 9 9 9 8 7 8 4 5 6 6 2 5 6 8 7 6 5 5 5 4 5 4 3 2 4 3 4 5 5 6 7 7 6 5 4 4 4 4
5 5 8 9 8 10 11 9 8 7 7 4 5 6 6 5 7 6 7 7 7 5 5 4 4 2 2 1 2 4 5 5 5 5 6 7 7 6 5 5 4 6
5 6 7 7 7 8 9 10 10 7 6 7 8 7 9 7 8 8 5 5 6 6 5 4 3 2 4 1 4 8 6 6 6 6 5 7 7 8 7 6 5 5
6 6 7 7 6 7 8 8 7 8 6 8 9 9 7 7 8 8 7 6 6 6 6 4 2 4 3 2 7 11 10 8 6 7 6 6 7 8 7 6 6 4
4 6 7 7 7 6 8 7 8 7 7 8 9 7 8 8 8 9 8 6 7 8 6 4 3 6 6 6 10 12 14 11 7 7 7 7 6 7 7 6 6 6
2 5 8 8 7 8 7 8 7 7 5 7 8 9 9 9 9 9 7 7 6 8 6 4 4 7 7 9 11 14 14 11 7 7 7 6 6 6 5 5 4 6
6 2 6 8 9 9 9 8 8 6 6 3 7 9 11 10 10 10 7 7 6 6 7 6 5 7 9 11 12 14 15 12 8 8 8 7 6 6 6 6 5 6
6 6 4 8 10 11 10 11 9 7 8 3 6 8 7 9 7 8 9 8 6 5 8 7 6 9 10 11 14 15 15 9 9 9 8 8 8 7 6 5 6 6
8 7 6 6 9 12 11 10 10 9 7 6 8 8 8 10 9 7 5 7 9 7 8 7 6 9 9 11 12 17 13 9 10 9 9 9 8 6 6 7 7 6
9 10 10 8 8 9 10 9 8 8 8 6 7 10 10 9 9 9 8 7 8 8 6 9 7 9 10 10 10 11 12 10 8 9 9 9 9 8 7 8 9 14
9 10 10 10 9 9 7 10 9 10 7 8 7 7 10 9 9 10 9 9 8 7 10 11 8 9 11 11 12 10 9 7 8 9 9 7 8 8 6 6 6 8
11 11 10 9 8 9 9 9 9 10 10 10 7 6 9 10 10 10 11 9 8 8 9 9 9 8 10 12 11 10 9 9 8 11 9 7 6 7 8 6 6 5
Wind_Direction
148 195 198 195 163 147 171 188 178 156 166 227 242 225 207 203 172 180 182 179 182 179 178 172 171 173 169 169 172 163 172 173 164 159 168 164 161 156 164 164 165 173
195 177 99 57 148 191 191 189 183 181 169 175 192 170 56 7 282 183 179 178 177 173 166 161 164 167 165 164 164 159 153 153 155 150 148 153 155 155 163 168 170 150
140 131 144 183 201 203 195 177 158 182 177 180 166 156 160 149 219 273 193 172 170 159 154 158 159 166 163 160 160 155 153 153 158 150 144 156 143 155 157 150 149 162
175 165 188 212 211 202 186 162 179 177 171 167 164 159 150 146 131 255 253 168 162 155 157 163 163 162 160 159 154 155 159 163 162 148 140 125 145 145 151 148 139 138
186 157 190 216 209 195 172 187 181 177 171 163 140 138 144 139 126 127 272 207 160 156 163 166 163 161 157 155 154 151 160 154 151 148 146 154 155 147 157 148 151 156
205 171 184 197 193 182 193 196 182 167 157 144 137 127 138 141 125 123 234 217 163 160 162 160 162 163 161 154 150 154 155 150 159 149 153 160 163 157 151 157 154 160
212 192 184 183 186 192 188 193 172 170 160 136 118 129 138 154 154 149 218 192 161 163 161 164 160 162 160 150 149 145 152 155 155 160 162 164 152 160 151 152 160 163
212 188 183 171 168 212 199 184 170 174 149 131 132 137 148 162 158 147 202 167 159 158 161 161 162 159 158 155 149 147 155 155 160 160 159 158 160 164 157 159 155 158
204 192 181 138 173 197 187 178 172 165 147 142 152 154 164 183 160 160 172 153 153 155 153 160 161 160 164 160 162 160 161 165 165 166 161 161 168 171 165 152 144 150
202 144 118 154 184 181 185 174 165 164 150 139 132 139 167 185 135 179 145 149 151 155 158 157 155 164 167 176 169 162 159 165 172 171 166 168 168 161 158 160 156 130
185 149 155 174 191 174 185 178 165 160 154 144 141 155 191 163 154 181 143 145 157 160 158 160 168 168 169 169 169 162 164 166 169 166 164 166 157 160 163 153 146 147
211 162 166 180 202 196 182 170 166 158 150 149 153 172 174 167 165 169 148 156 157 158 161 161 159 169 171 172 170 167 162 161 161 161 163 148 140 129 122 111 98 90
204 205 173 186 206 198 144 135 154 155 150 153 157 173 163 168 162 150 139 131 118 117 121 132 132 140 163 160 153 151 153 149 148 147 133 116 125 131 119 114 120 113
214 210 184 145 176 171 121 134 131 168 164 149 153 159 181 161 137 114 106 103 106 103 97 99 104 83 76 122 147 153 149 144 143 133 114 110 105 92 100 102 104 113
200 189 140 159 169 140 141 165 161 162 160 150 161 161 126 109 118 122 113 100 90 95 90 81 87 82 74 108 142 140 132 124 120 121 118 110 100 93 83 85 68 64
187 170 165 172 156 152 157 162 154 155 152 147 137 129 127 125 115 113 117 120 111 91 86 82 77 78 31 2 191 143 129 111 99 107 117 116 111 99 78 71 82 78
183 181 163 152 149 145 138 150 154 143 146 132 123 143 134 132 118 107 99 101 107 111 98 81 66 30 4 49 146 142 125 114 113 111 112 114 113 114 111 98 79 78
188 164 147 148 147 143 137 146 140 128 139 139 132 124 115 115 113 109 108 107 101 94 86 76 61 360 15 94 137 135 123 118 119 119 120 116 119 118 117 111 107 101
201 147 142 144 136 128 125 127 122 122 135 139 129 128 118 114 117 113 109 107 109 102 89 74 64 4 36 97 115 117 117 116 114 121 118 119 116 115 118 124 125 106
332 161 147 138 128 120 115 116 109 114 129 132 123 122 116 114 110 107 107 101 101 103 98 73 62 7 53 93 110 111 110 107 111 106 100 98 101 103 104 100 100 107
6 15 128 128 121 112 100 84 96 95 88 90 126 126 127 124 120 108 101 100 92 98 96 74 41 27 72 93 101 104 100 99 95 92 87 81 74 75 80 85 88 91
9 55 11 111 109 104 98 99 91 88 96 70 90 81 78 92 70 93 105 96 87 82 88 69 36 31 75 90 101 98 92 87 86 82 78 70 61 56 64 77 83 86
10 36 55 40 83 97 95 94 97 88 74 77 78 75 85 77 76 58 50 94 94 81 84 73 50 18 71 94 102 105 95 94 91 84 75 70 55 43 50 52 54 62
12 47 39 49 61 70 89 89 85 81 71 57 84 97 75 77 86 75 53 44 69 79 81 88 62 31 53 77 79 91 109 109 106 101 97 93 86 57 49 57 45 51
9 41 53 54 54 63 70 83 77 80 70 69 42 70 88 86 75 77 69 55 46 59 64 75 67 41 43 62 66 68 88 98 100 98 95 91 93 83 64 65 55 47
9 29 47 63 68 78 73 78 85 83 75 75 50 51 81 76 75 72 69 58 46 45 49 52 61 51 40 58 67 70 84 103 110 103 98 90 84 97 89 58 49 45